Time,TemperatureF,DewpointF,PressureIn,WindDirection,WindDirectionDegrees,WindSpeedMPH,WindSpeedGustMPH,Humidity,HourlyPrecipIn,Conditions,Clouds,dailyrainin,SolarRadiationWatts/m^2,SoftwareType,DateUTC
2013-03-09 00:05:00,32.1,26.7,-100.00,East,91,1.8,4.0,80,0.00,,,-99.99,1.0,HOBO +U30 +Weather +,2013-03-09 07:05:00,
2013-03-09 00:15:00,31.8,26.4,-100.00,South,177,2.2,4.5,80,0.00,,,-99.99,1.0,HOBO +U30 +Weather +,2013-03-09 07:15:00,
2013-03-09 00:35:00,30.9,25.6,-100.00,SSW,195,1.8,3.4,80,0.00,,,-99.99,1.0,HOBO +U30 +Weather +,2013-03-09 07:35:00,
2013-03-09 01:10:00,31.0,25.5,-100.00,WSW,241,0.7,2.9,79,0.00,,,-99.99,1.0,HOBO +U30 +Weather +,2013-03-09 08:10:00,
2013-03-09 01:20:00,30.0,24.8,-100.00,WSW,247,0.0,0.0,80,0.00,,,-99.99,1.0,HOBO +U30 +Weather +,2013-03-09 08:20:00,
2013-03-09 01:30:00,29.5,24.7,-100.00,WSW,247,0.0,0.0,81,0.00,,,-99.99,1.0,HOBO +U30 +Weather +,2013-03-09 08:30:00,
2013-03-09 01:35:00,29.6,24.8,-100.00,WSW,247,0.0,0.0,81,0.00,,,-99.99,1.0,HOBO +U30 +Weather +,2013-03-09 08:35:00,
2013-03-09 01:40:00,29.7,24.9,-100.00,South,175,0.7,2.2,82,0.00,,,-99.99,1.0,HOBO +U30 +Weather +,2013-03-09 08:40:00,
2013-03-09 02:00:00,29.2,25.2,-100.00,East,86,0.0,1.8,85,0.00,,,-99.99,1.0,HOBO +U30 +Weather +,2013-03-09 09:00:00,
2013-03-09 02:50:00,28.7,25.0,-100.00,South,185,1.8,3.4,85,0.00,,,-99.99,1.0,HOBO +U30 +Weather +,2013-03-09 09:50:00,
2013-03-09 03:10:00,27.6,24.2,-100.00,SSE,167,0.7,2.9,86,0.00,,,-99.99,1.0,HOBO +U30 +Weather +,2013-03-09 10:10:00,
2013-03-09 03:15:00,27.5,24.0,-100.00,SSW,198,1.1,2.9,86,0.00,,,-99.99,1.0,HOBO +U30 +Weather +,2013-03-09 10:15:00,
2013-03-09 03:20:00,27.2,23.8,-100.00,South,184,2.2,3.4,87,0.00,,,-99.99,1.0,HOBO +U30 +Weather +,2013-03-09 10:20:00,
2013-03-09 03:25:00,27.0,23.8,-100.00,South,191,2.9,4.5,87,0.00,,,-99.99,1.0,HOBO +U30 +Weather +,2013-03-09 10:25:00,
2013-03-09 03:30:00,27.2,24.1,-100.00,SSW,204,0.7,2.2,87,0.00,,,-99.99,1.0,HOBO +U30 +Weather +,2013-03-09 10:30:00,
2013-03-09 03:35:00,27.3,24.1,-100.00,SSW,202,2.2,3.4,87,0.00,,,-99.99,1.0,HOBO +U30 +Weather +,2013-03-09 10:35:00,
2013-03-09 03:40:00,27.3,24.1,-100.00,SSW,206,2.2,3.4,87,0.00,,,-99.99,1.0,HOBO +U30 +Weather +,2013-03-09 10:40:00,
2013-03-09 03:45:00,27.3,24.0,-100.00,SSW,204,2.2,4.5,87,0.00,,,-99.99,1.0,HOBO +U30 +Weather +,2013-03-09 10:45:00,
2013-03-09 03:50:00,27.4,24.2,-100.00,SSW,208,2.9,5.6,87,0.00,,,-99.99,1.0,HOBO +U30 +Weather +,2013-03-09 10:50:00,
2013-03-09 03:55:00,27.2,24.0,-100.00,South,191,1.8,5.1,87,0.00,,,-99.99,1.0,HOBO +U30 +Weather +,2013-03-09 10:55:00,
2013-03-09 04:00:00,27.3,24.2,-100.00,South,191,0.0,2.2,87,0.00,,,-99.99,1.0,HOBO +U30 +Weather +,2013-03-09 11:00:00,
2013-03-09 04:05:00,27.4,24.2,-100.00,South,180,1.1,4.0,87,0.00,,,-99.99,1.0,HOBO +U30 +Weather +,2013-03-09 11:05:00,
2013-03-09 04:10:00,27.2,24.3,-100.00,SSW,192,2.2,4.0,88,0.00,,,-99.99,1.0,HOBO +U30 +Weather +,2013-03-09 11:10:00,
2013-03-09 04:15:00,27.6,24.7,-100.00,SSW,209,0.0,1.8,88,0.00,,,-99.99,1.0,HOBO +U30 +Weather +,2013-03-09 11:15:00,
2013-03-09 04:20:00,27.8,24.6,-100.00,SW,236,1.1,2.9,87,0.00,,,-99.99,1.0,HOBO +U30 +Weather +,2013-03-09 11:20:00,
2013-03-09 04:25:00,27.1,23.9,-100.00,West,261,0.0,2.2,87,0.00,,,-99.99,1.0,HOBO +U30 +Weather +,2013-03-09 11:25:00,
2013-03-09 04:30:00,27.0,23.8,-100.00,West,268,0.0,1.8,87,0.00,,,-99.99,1.0,HOBO +U30 +Weather +,2013-03-09 11:30:00,
2013-03-09 04:35:00,27.0,23.8,-100.00,West,271,1.1,3.4,87,0.00,,,-99.99,1.0,HOBO +U30 +Weather +,2013-03-09 11:35:00,
2013-03-09 04:40:00,27.1,24.0,-100.00,WNW,286,2.2,5.1,88,0.00,,,-99.99,1.0,HOBO +U30 +Weather +,2013-03-09 11:40:00,
2013-03-09 04:45:00,27.2,24.1,-100.00,West,281,0.7,3.4,88,0.00,,,-99.99,1.0,HOBO +U30 +Weather +,2013-03-09 11:45:00,
2013-03-09 04:50:00,27.4,24.2,-100.00,WNW,285,1.8,4.5,87,0.00,,,-99.99,1.0,HOBO +U30 +Weather +,2013-03-09 11:50:00,
2013-03-09 04:55:00,27.7,24.5,-100.00,West,271,1.8,4.0,87,0.00,,,-99.99,1.0,HOBO +U30 +Weather +,2013-03-09 11:55:00,
2013-03-09 05:00:00,27.9,24.6,-100.00,WSW,256,1.8,4.5,87,0.00,,,-99.99,1.0,HOBO +U30 +Weather +,2013-03-09 12:00:00,
2013-03-09 05:05:00,28.4,25.0,-100.00,WSW,253,3.4,5.1,87,0.00,,,-99.99,1.0,HOBO +U30 +Weather +,2013-03-09 12:05:00,
2013-03-09 05:10:00,28.4,25.0,-100.00,West,263,4.5,6.7,86,0.00,,,-99.99,1.0,HOBO +U30 +Weather +,2013-03-09 12:10:00,
2013-03-09 05:15:00,28.2,24.7,-100.00,West,263,3.4,6.7,86,0.00,,,-99.99,1.0,HOBO +U30 +Weather +,2013-03-09 12:15:00,
2013-03-09 05:20:00,28.1,24.7,-100.00,West,260,4.0,6.7,86,0.00,,,-99.99,1.0,HOBO +U30 +Weather +,2013-03-09 12:20:00,
2013-03-09 05:25:00,28.0,24.4,-100.00,WSW,244,1.8,5.1,86,0.00,,,-99.99,1.0,HOBO +U30 +Weather +,2013-03-09 12:25:00,
2013-03-09 05:30:00,27.4,24.0,-100.00,SSW,197,0.7,2.2,86,0.00,,,-99.99,1.0,HOBO +U30 +Weather +,2013-03-09 12:30:00,
2013-03-09 05:35:00,27.5,24.2,-100.00,SW,229,1.8,3.4,87,0.00,,,-99.99,1.0,HOBO +U30 +Weather +,2013-03-09 12:35:00,
2013-03-09 05:40:00,27.8,24.3,-100.00,WSW,251,2.9,4.5,86,0.00,,,-99.99,1.0,HOBO +U30 +Weather +,2013-03-09 12:40:00,
2013-03-09 05:45:00,27.5,24.1,-100.00,WSW,237,2.2,5.1,86,0.00,,,-99.99,1.0,HOBO +U30 +Weather +,2013-03-09 12:45:00,
2013-03-09 05:50:00,27.2,23.7,-100.00,SW,230,1.8,4.0,86,0.00,,,-99.99,1.0,HOBO +U30 +Weather +,2013-03-09 12:50:00,
2013-03-09 05:55:00,26.5,23.2,-100.00,SW,218,2.2,5.6,87,0.00,,,-99.99,1.0,HOBO +U30 +Weather +,2013-03-09 12:55:00,
2013-03-09 06:00:00,26.2,23.1,-100.00,SSW,206,2.2,5.1,87,0.00,,,-99.99,1.0,HOBO +U30 +Weather +,2013-03-09 13:00:00,
2013-03-09 06:05:00,26.2,23.2,-100.00,SSW,197,0.0,2.2,88,0.00,,,-99.99,1.0,HOBO +U30 +Weather +,2013-03-09 13:05:00,
2013-03-09 06:10:00,25.9,22.9,-100.00,SSW,197,0.0,1.8,88,0.00,,,-99.99,1.0,HOBO +U30 +Weather +,2013-03-09 13:10:00,
2013-03-09 06:15:00,25.5,22.7,-100.00,SSW,197,1.8,2.9,89,0.00,,,-99.99,1.0,HOBO +U30 +Weather +,2013-03-09 13:15:00,
2013-03-09 06:20:00,25.4,22.7,-100.00,SSW,194,2.2,3.4,89,0.00,,,-99.99,1.0,HOBO +U30 +Weather +,2013-03-09 13:20:00,
2013-03-09 06:25:00,25.2,22.7,-100.00,South,187,1.1,2.9,89,0.00,,,-99.99,1.0,HOBO +U30 +Weather +,2013-03-09 13:25:00,
2013-03-09 06:30:00,25.2,22.6,-100.00,South,187,1.1,2.2,89,0.00,,,-99.99,2.0,HOBO +U30 +Weather +,2013-03-09 13:30:00,
2013-03-09 06:35:00,25.2,22.7,-100.00,South,187,2.2,3.4,90,0.00,,,-99.99,3.0,HOBO +U30 +Weather +,2013-03-09 13:35:00,
2013-03-09 06:40:00,25.2,22.7,-100.00,South,187,2.9,4.0,90,0.00,,,-99.99,6.0,HOBO +U30 +Weather +,2013-03-09 13:40:00,
2013-03-09 06:55:00,25.2,22.7,-100.00,South,187,1.1,3.4,90,0.00,,,-99.99,22.0,HOBO +U30 +Weather +,2013-03-09 13:55:00,
2013-03-09 07:05:00,26.2,23.3,-100.00,SSW,206,1.8,4.5,88,0.00,,,-99.99,61.0,HOBO +U30 +Weather +,2013-03-09 14:05:00,
2013-03-09 07:10:00,26.6,23.6,-100.00,SSW,209,1.1,3.4,88,0.00,,,-99.99,76.0,HOBO +U30 +Weather +,2013-03-09 14:10:00,
2013-03-09 07:50:00,29.4,24.2,-100.00,West,260,0.7,3.4,80,0.00,,,-99.99,188.0,HOBO +U30 +Weather +,2013-03-09 14:50:00,
2013-03-09 08:10:00,31.0,25.5,-100.00,West,260,0.7,4.0,79,0.00,,,-99.99,241.0,HOBO +U30 +Weather +,2013-03-09 15:10:00,
2013-03-09 08:25:00,31.2,24.5,-100.00,West,261,1.8,4.5,75,0.00,,,-99.99,282.0,HOBO +U30 +Weather +,2013-03-09 15:25:00,
2013-03-09 08:30:00,32.1,25.4,-100.00,WSW,258,1.1,4.5,76,0.00,,,-99.99,296.0,HOBO +U30 +Weather +,2013-03-09 15:30:00,
2013-03-09 08:35:00,32.8,25.2,-100.00,West,272,0.7,3.4,73,0.00,,,-99.99,306.0,HOBO +U30 +Weather +,2013-03-09 15:35:00,
2013-03-09 09:00:00,36.2,26.4,-100.00,SW,226,1.1,5.1,67,0.00,,,-99.99,376.0,HOBO +U30 +Weather +,2013-03-09 16:00:00,
2013-03-09 09:10:00,37.7,26.7,-100.00,SSW,195,2.9,6.7,64,0.00,,,-99.99,439.0,HOBO +U30 +Weather +,2013-03-09 16:10:00,
2013-03-09 09:15:00,36.9,25.6,-100.00,SSW,202,4.0,6.7,63,0.00,,,-99.99,393.0,HOBO +U30 +Weather +,2013-03-09 16:15:00,
2013-03-09 09:20:00,37.5,26.0,-100.00,SSW,201,4.5,6.7,62,0.00,,,-99.99,292.0,HOBO +U30 +Weather +,2013-03-09 16:20:00,
2013-03-09 09:25:00,37.0,25.0,-100.00,SSW,197,5.1,7.4,61,0.00,,,-99.99,254.0,HOBO +U30 +Weather +,2013-03-09 16:25:00,
2013-03-09 09:30:00,37.3,24.9,-100.00,SSW,192,5.6,7.4,60,0.00,,,-99.99,237.0,HOBO +U30 +Weather +,2013-03-09 16:30:00,
2013-03-09 09:35:00,38.1,24.8,-100.00,SSW,195,5.1,8.9,58,0.00,,,-99.99,266.0,HOBO +U30 +Weather +,2013-03-09 16:35:00,
2013-03-09 09:40:00,39.5,25.5,-100.00,South,180,2.9,6.3,56,0.00,,,-99.99,392.0,HOBO +U30 +Weather +,2013-03-09 16:40:00,
2013-03-09 09:45:00,39.7,25.2,-100.00,SSW,194,2.2,5.1,55,0.00,,,-99.99,376.0,HOBO +U30 +Weather +,2013-03-09 16:45:00,
2013-03-09 09:50:00,41.1,25.6,-100.00,South,180,1.8,4.5,53,0.00,,,-99.99,647.0,HOBO +U30 +Weather +,2013-03-09 16:50:00,
2013-03-09 09:55:00,41.6,25.8,-100.00,South,174,1.8,4.5,53,0.00,,,-99.99,276.0,HOBO +U30 +Weather +,2013-03-09 16:55:00,
2013-03-09 10:00:00,41.6,25.3,-100.00,South,188,0.7,2.9,52,0.00,,,-99.99,272.0,HOBO +U30 +Weather +,2013-03-09 17:00:00,
2013-03-09 10:05:00,42.7,25.3,-100.00,SE,146,0.0,2.9,49,0.00,,,-99.99,661.0,HOBO +U30 +Weather +,2013-03-09 17:05:00,
2013-03-09 10:10:00,42.9,24.0,-100.00,SE,138,1.8,6.7,46,0.00,,,-99.99,723.0,HOBO +U30 +Weather +,2013-03-09 17:10:00,
2013-03-09 10:35:00,42.6,20.2,-100.00,NW,306,7.8,14.1,40,0.00,,,-99.99,351.0,HOBO +U30 +Weather +,2013-03-09 17:35:00,
2013-03-09 10:55:00,43.1,20.5,-100.00,WNW,288,4.5,8.9,40,0.00,,,-99.99,289.0,HOBO +U30 +Weather +,2013-03-09 17:55:00,
2013-03-09 11:05:00,42.4,20.3,-100.00,NNW,338,9.6,15.2,40,0.00,,,-99.99,262.0,HOBO +U30 +Weather +,2013-03-09 18:05:00,
2013-03-09 11:10:00,42.7,19.9,-100.00,NNW,345,7.8,13.0,39,0.00,,,-99.99,512.0,HOBO +U30 +Weather +,2013-03-09 18:10:00,
2013-03-09 11:15:00,44.0,20.7,-100.00,NW,307,6.3,12.3,39,0.00,,,-99.99,816.0,HOBO +U30 +Weather +,2013-03-09 18:15:00,
2013-03-09 11:20:00,45.2,21.4,-100.00,WNW,300,2.2,8.5,38,0.00,,,-99.99,348.0,HOBO +U30 +Weather +,2013-03-09 18:20:00,
2013-03-09 11:25:00,44.0,20.2,-100.00,WNW,289,6.3,14.5,38,0.00,,,-99.99,271.0,HOBO +U30 +Weather +,2013-03-09 18:25:00,
2013-03-09 11:30:00,43.6,20.6,-100.00,WNW,298,7.8,13.4,39,0.00,,,-99.99,174.0,HOBO +U30 +Weather +,2013-03-09 18:30:00,
2013-03-09 11:35:00,44.1,21.1,-100.00,WNW,295,5.1,11.2,39,0.00,,,-99.99,201.0,HOBO +U30 +Weather +,2013-03-09 18:35:00,
2013-03-09 11:40:00,44.3,20.9,-100.00,WNW,299,6.3,14.5,39,0.00,,,-99.99,284.0,HOBO +U30 +Weather +,2013-03-09 18:40:00,
2013-03-09 11:45:00,44.0,20.2,-100.00,WNW,298,7.8,15.2,38,0.00,,,-99.99,299.0,HOBO +U30 +Weather +,2013-03-09 18:45:00,
2013-03-09 11:50:00,44.1,20.2,-100.00,NW,305,6.7,12.3,38,0.00,,,-99.99,324.0,HOBO +U30 +Weather +,2013-03-09 18:50:00,
2013-03-09 11:55:00,44.6,20.6,-100.00,WNW,286,4.0,9.6,38,0.00,,,-99.99,431.0,HOBO +U30 +Weather +,2013-03-09 18:55:00,
2013-03-09 12:00:00,45.8,21.2,-100.00,WNW,292,4.5,7.8,37,0.00,,,-99.99,329.0,HOBO +U30 +Weather +,2013-03-09 19:00:00,
2013-03-09 12:05:00,45.2,20.0,-100.00,WNW,300,3.4,11.2,36,0.00,,,-99.99,337.0,HOBO +U30 +Weather +,2013-03-09 19:05:00,
2013-03-09 12:10:00,46.6,20.6,-100.00,NW,321,5.6,12.3,35,0.00,,,-99.99,824.0,HOBO +U30 +Weather +,2013-03-09 19:10:00,
2013-03-09 12:15:00,45.4,19.9,-100.00,WNW,289,3.4,8.5,35,0.00,,,-99.99,301.0,HOBO +U30 +Weather +,2013-03-09 19:15:00,
2013-03-09 12:20:00,46.8,20.0,-100.00,NNW,327,4.0,13.0,34,0.00,,,-99.99,874.0,HOBO +U30 +Weather +,2013-03-09 19:20:00,
2013-03-09 12:25:00,46.4,19.4,-100.00,NNW,329,7.4,14.1,33,0.00,,,-99.99,322.0,HOBO +U30 +Weather +,2013-03-09 19:25:00,
2013-03-09 12:30:00,45.6,18.6,-100.00,NW,305,6.7,13.4,33,0.00,,,-99.99,229.0,HOBO +U30 +Weather +,2013-03-09 19:30:00,
2013-03-09 12:35:00,45.4,18.3,-100.00,NW,309,13.0,22.6,33,0.00,,,-99.99,794.0,HOBO +U30 +Weather +,2013-03-09 19:35:00,
2013-03-09 12:40:00,45.9,18.1,-100.00,WNW,298,11.9,18.6,32,0.00,,,-99.99,821.0,HOBO +U30 +Weather +,2013-03-09 19:40:00,
2013-03-09 12:45:00,46.1,18.6,-100.00,NW,319,8.9,22.6,32,0.00,,,-99.99,159.0,HOBO +U30 +Weather +,2013-03-09 19:45:00,
2013-03-09 12:50:00,46.5,18.3,-100.00,NW,309,11.2,20.8,32,0.00,,,-99.99,767.0,HOBO +U30 +Weather +,2013-03-09 19:50:00,
2013-03-09 12:55:00,46.1,17.5,-100.00,NW,305,11.2,24.8,31,0.00,,,-99.99,153.0,HOBO +U30 +Weather +,2013-03-09 19:55:00,
2013-03-09 13:00:00,46.1,17.1,-100.00,NW,314,13.0,21.9,30,0.00,,,-99.99,237.0,HOBO +U30 +Weather +,2013-03-09 20:00:00,
2013-03-09 13:05:00,47.1,17.4,-100.00,NW,313,14.1,26.4,30,0.00,,,-99.99,713.0,HOBO +U30 +Weather +,2013-03-09 20:05:00,
2013-03-09 13:10:00,46.5,16.8,-100.00,NW,313,15.2,25.3,30,0.00,,,-99.99,702.0,HOBO +U30 +Weather +,2013-03-09 20:10:00,
2013-03-09 13:15:00,48.1,17.8,-100.00,WNW,299,11.9,27.5,29,0.00,,,-99.99,741.0,HOBO +U30 +Weather +,2013-03-09 20:15:00,
2013-03-09 13:20:00,47.0,17.3,-100.00,NW,316,14.5,23.7,30,0.00,,,-99.99,714.0,HOBO +U30 +Weather +,2013-03-09 20:20:00,
2013-03-09 13:25:00,47.4,17.2,-100.00,WNW,303,15.2,30.4,29,0.00,,,-99.99,756.0,HOBO +U30 +Weather +,2013-03-09 20:25:00,
2013-03-09 13:30:00,47.2,16.9,-100.00,WNW,298,14.1,27.1,29,0.00,,,-99.99,397.0,HOBO +U30 +Weather +,2013-03-09 20:30:00,
2013-03-09 13:35:00,47.8,17.6,-100.00,NW,310,13.4,28.2,29,0.00,,,-99.99,293.0,HOBO +U30 +Weather +,2013-03-09 20:35:00,
2013-03-09 13:40:00,46.8,17.2,-100.00,WNW,292,14.5,28.6,30,0.00,,,-99.99,763.0,HOBO +U30 +Weather +,2013-03-09 20:40:00,
2013-03-09 13:45:00,47.4,17.3,-100.00,WNW,300,11.9,20.8,29,0.00,,,-99.99,666.0,HOBO +U30 +Weather +,2013-03-09 20:45:00,
2013-03-09 13:50:00,48.2,17.6,-100.00,WNW,295,9.6,19.2,29,0.00,,,-99.99,693.0,HOBO +U30 +Weather +,2013-03-09 20:50:00,
2013-03-09 13:55:00,47.6,16.7,-100.00,WNW,298,12.3,23.0,28,0.00,,,-99.99,199.0,HOBO +U30 +Weather +,2013-03-09 20:55:00,
2013-03-09 14:00:00,48.1,17.6,-100.00,NW,306,11.2,23.0,29,0.00,,,-99.99,664.0,HOBO +U30 +Weather +,2013-03-09 21:00:00,
2013-03-09 14:05:00,48.0,17.7,-100.00,WNW,298,12.3,23.7,29,0.00,,,-99.99,681.0,HOBO +U30 +Weather +,2013-03-09 21:05:00,
2013-03-09 14:10:00,47.5,17.3,-100.00,NW,307,12.3,26.4,29,0.00,,,-99.99,187.0,HOBO +U30 +Weather +,2013-03-09 21:10:00,
2013-03-09 14:15:00,47.4,17.1,-100.00,WNW,295,11.2,19.2,29,0.00,,,-99.99,563.0,HOBO +U30 +Weather +,2013-03-09 21:15:00,
2013-03-09 14:20:00,48.4,17.6,-100.00,WNW,302,11.2,22.6,28,0.00,,,-99.99,318.0,HOBO +U30 +Weather +,2013-03-09 21:20:00,
2013-03-09 14:25:00,47.3,17.1,-100.00,NW,312,11.2,21.5,29,0.00,,,-99.99,666.0,HOBO +U30 +Weather +,2013-03-09 21:25:00,
2013-03-09 14:30:00,47.3,17.4,-100.00,NW,316,14.1,26.4,29,0.00,,,-99.99,548.0,HOBO +U30 +Weather +,2013-03-09 21:30:00,
2013-03-09 14:35:00,48.1,17.3,-100.00,NW,312,11.9,19.7,29,0.00,,,-99.99,666.0,HOBO +U30 +Weather +,2013-03-09 21:35:00,
2013-03-09 14:40:00,47.3,16.5,-100.00,NNW,340,14.1,19.7,28,0.00,,,-99.99,626.0,HOBO +U30 +Weather +,2013-03-09 21:40:00,
2013-03-09 14:45:00,47.2,17.1,-100.00,NNW,334,14.1,20.4,29,0.00,,,-99.99,426.0,HOBO +U30 +Weather +,2013-03-09 21:45:00,
2013-03-09 14:50:00,46.6,17.0,-100.00,NNW,340,14.1,21.9,30,0.00,,,-99.99,332.0,HOBO +U30 +Weather +,2013-03-09 21:50:00,
2013-03-09 14:55:00,47.2,17.7,-100.00,NNW,340,13.0,21.9,30,0.00,,,-99.99,568.0,HOBO +U30 +Weather +,2013-03-09 21:55:00,
2013-03-09 15:00:00,46.9,17.1,-100.00,NW,323,11.9,18.1,30,0.00,,,-99.99,233.0,HOBO +U30 +Weather +,2013-03-09 22:00:00,
2013-03-09 15:05:00,46.6,17.2,-100.00,NNW,338,15.9,23.0,30,0.00,,,-99.99,464.0,HOBO +U30 +Weather +,2013-03-09 22:05:00,
2013-03-09 16:00:00,46.9,15.9,-100.00,NNW,331,19.7,28.6,28,0.00,,,-99.99,378.0,HOBO +U30 +Weather +,2013-03-09 23:00:00,
2013-03-09 16:25:00,46.6,16.4,-100.00,NW,316,14.5,24.2,29,0.00,,,-99.99,327.0,HOBO +U30 +Weather +,2013-03-09 23:25:00,
2013-03-09 16:45:00,46.8,16.2,-100.00,NNW,341,13.4,24.2,29,0.00,,,-99.99,228.0,HOBO +U30 +Weather +,2013-03-09 23:45:00,
2013-03-09 17:00:00,45.9,16.0,-100.00,NNW,347,13.4,20.8,29,0.00,,,-99.99,188.0,HOBO +U30 +Weather +,2013-03-10 00:00:00,
2013-03-09 17:05:00,46.5,16.4,-100.00,NNW,343,12.3,21.5,29,0.00,,,-99.99,179.0,HOBO +U30 +Weather +,2013-03-10 00:05:00,
2013-03-09 18:10:00,43.1,15.9,-100.00,NNW,334,12.3,18.1,32,0.00,,,-99.99,4.0,HOBO +U30 +Weather +,2013-03-10 01:10:00,
2013-03-09 18:15:00,42.9,16.1,-100.00,NNW,334,9.6,15.9,33,0.00,,,-99.99,2.0,HOBO +U30 +Weather +,2013-03-10 01:15:00,
2013-03-09 18:35:00,42.2,16.0,-100.00,NNW,341,5.6,10.1,34,0.00,,,-99.99,1.0,HOBO +U30 +Weather +,2013-03-10 01:35:00,
2013-03-09 18:40:00,41.9,16.0,-100.00,NW,326,5.1,8.9,34,0.00,,,-99.99,1.0,HOBO +U30 +Weather +,2013-03-10 01:40:00,
2013-03-09 19:05:00,40.9,16.6,-100.00,North,355,10.1,15.2,36,0.00,,,-99.99,1.0,HOBO +U30 +Weather +,2013-03-10 02:05:00,
2013-03-09 19:10:00,40.8,16.9,-100.00,North,7,10.1,15.2,37,0.00,,,-99.99,1.0,HOBO +U30 +Weather +,2013-03-10 02:10:00,
2013-03-09 19:15:00,40.7,17.1,-100.00,North,0,8.9,13.4,38,0.00,,,-99.99,1.0,HOBO +U30 +Weather +,2013-03-10 02:15:00,
2013-03-09 19:20:00,40.4,17.1,-100.00,North,10,10.1,16.3,38,0.00,,,-99.99,1.0,HOBO +U30 +Weather +,2013-03-10 02:20:00,
2013-03-09 19:25:00,39.9,16.9,-100.00,North,4,8.5,13.4,38,0.00,,,-99.99,1.0,HOBO +U30 +Weather +,2013-03-10 02:25:00,
2013-03-09 19:30:00,39.6,16.8,-100.00,North,4,7.8,13.0,39,0.00,,,-99.99,1.0,HOBO +U30 +Weather +,2013-03-10 02:30:00,
2013-03-09 19:35:00,39.3,16.9,-100.00,North,4,7.4,13.0,39,0.00,,,-99.99,1.0,HOBO +U30 +Weather +,2013-03-10 02:35:00,
2013-03-09 19:40:00,38.9,16.8,-100.00,North,1,7.4,11.2,40,0.00,,,-99.99,1.0,HOBO +U30 +Weather +,2013-03-10 02:40:00,
2013-03-09 19:45:00,38.7,16.7,-100.00,North,1,8.5,14.1,40,0.00,,,-99.99,1.0,HOBO +U30 +Weather +,2013-03-10 02:45:00,
2013-03-09 20:10:00,37.5,16.7,-100.00,NNE,14,6.7,8.9,42,0.00,,,-99.99,1.0,HOBO +U30 +Weather +,2013-03-10 03:10:00,
2013-03-09 20:15:00,37.3,16.8,-100.00,NNE,13,7.8,10.7,42,0.00,,,-99.99,1.0,HOBO +U30 +Weather +,2013-03-10 03:15:00,
2013-03-09 20:20:00,37.1,16.9,-100.00,North,11,8.5,13.0,43,0.00,,,-99.99,1.0,HOBO +U30 +Weather +,2013-03-10 03:20:00,
2013-03-09 20:25:00,37.0,17.0,-100.00,North,11,8.9,11.9,43,0.00,,,-99.99,1.0,HOBO +U30 +Weather +,2013-03-10 03:25:00,
2013-03-09 20:30:00,36.9,17.2,-100.00,North,8,8.5,11.2,44,0.00,,,-99.99,1.0,HOBO +U30 +Weather +,2013-03-10 03:30:00,
2013-03-09 20:35:00,36.7,17.2,-100.00,North,10,6.7,8.9,44,0.00,,,-99.99,1.0,HOBO +U30 +Weather +,2013-03-10 03:35:00,
2013-03-09 20:40:00,36.5,17.3,-100.00,NNE,29,2.2,5.6,45,0.00,,,-99.99,1.0,HOBO +U30 +Weather +,2013-03-10 03:40:00,
2013-03-09 21:00:00,35.3,18.0,-100.00,NE,45,3.4,4.5,48,0.00,,,-99.99,1.0,HOBO +U30 +Weather +,2013-03-10 04:00:00,
2013-03-09 21:05:00,35.0,18.1,-100.00,NNE,24,2.9,4.0,49,0.00,,,-99.99,1.0,HOBO +U30 +Weather +,2013-03-10 04:05:00,
2013-03-09 21:30:00,34.4,17.9,-100.00,North,0,0.0,0.0,50,0.00,,,-99.99,1.0,HOBO +U30 +Weather +,2013-03-10 04:30:00,
2013-03-09 21:35:00,34.5,18.2,-100.00,North,0,0.7,3.4,50,0.00,,,-99.99,1.0,HOBO +U30 +Weather +,2013-03-10 04:35:00,
2013-03-09 21:40:00,34.1,18.0,-100.00,North,0,2.9,4.0,51,0.00,,,-99.99,1.0,HOBO +U30 +Weather +,2013-03-10 04:40:00,
2013-03-09 21:45:00,33.4,17.7,-100.00,North,0,1.1,4.0,52,0.00,,,-99.99,1.0,HOBO +U30 +Weather +,2013-03-10 04:45:00,
2013-03-09 21:50:00,33.3,17.9,-100.00,North,0,0.0,0.7,52,0.00,,,-99.99,1.0,HOBO +U30 +Weather +,2013-03-10 04:50:00,
2013-03-09 21:55:00,33.9,18.1,-100.00,North,0,0.0,1.1,52,0.00,,,-99.99,1.0,HOBO +U30 +Weather +,2013-03-10 04:55:00,
2013-03-09 22:00:00,33.8,18.1,-100.00,North,0,0.0,2.9,52,0.00,,,-99.99,1.0,HOBO +U30 +Weather +,2013-03-10 05:00:00,
2013-03-09 22:05:00,33.6,18.1,-100.00,North,0,1.8,3.4,52,0.00,,,-99.99,1.0,HOBO +U30 +Weather +,2013-03-10 05:05:00,
2013-03-09 22:10:00,33.2,17.9,-100.00,North,0,0.0,1.8,52,0.00,,,-99.99,1.0,HOBO +U30 +Weather +,2013-03-10 05:10:00,
2013-03-09 22:15:00,33.2,17.9,-100.00,North,0,0.0,0.0,52,0.00,,,-99.99,1.0,HOBO +U30 +Weather +,2013-03-10 05:15:00,
2013-03-09 22:20:00,33.7,17.9,-100.00,North,0,0.7,1.8,51,0.00,,,-99.99,1.0,HOBO +U30 +Weather +,2013-03-10 05:20:00,
2013-03-09 22:25:00,33.0,18.1,-100.00,ESE,108,0.7,2.2,53,0.00,,,-99.99,1.0,HOBO +U30 +Weather +,2013-03-10 05:25:00,
2013-03-09 22:30:00,32.5,18.0,-100.00,ESE,117,0.0,1.8,54,0.00,,,-99.99,1.0,HOBO +U30 +Weather +,2013-03-10 05:30:00,
2013-03-09 22:35:00,32.1,18.4,-100.00,NNE,13,1.8,3.4,56,0.00,,,-99.99,1.0,HOBO +U30 +Weather +,2013-03-10 05:35:00,
2013-03-09 22:40:00,32.2,18.4,-100.00,North,0,0.0,2.2,56,0.00,,,-99.99,1.0,HOBO +U30 +Weather +,2013-03-10 05:40:00,
2013-03-09 22:45:00,32.2,18.2,-100.00,North,0,0.0,0.7,55,0.00,,,-99.99,1.0,HOBO +U30 +Weather +,2013-03-10 05:45:00,
2013-03-09 22:50:00,32.1,18.6,-100.00,SE,145,2.9,5.1,57,0.00,,,-99.99,1.0,HOBO +U30 +Weather +,2013-03-10 05:50:00,
2013-03-09 22:55:00,31.9,18.4,-100.00,South,180,2.2,4.5,57,0.00,,,-99.99,1.0,HOBO +U30 +Weather +,2013-03-10 05:55:00,
2013-03-09 23:00:00,31.2,18.4,-100.00,South,175,0.0,1.1,58,0.00,,,-99.99,1.0,HOBO +U30 +Weather +,2013-03-10 06:00:00,
2013-03-09 23:05:00,30.8,18.4,-100.00,ESE,104,0.0,1.8,59,0.00,,,-99.99,1.0,HOBO +U30 +Weather +,2013-03-10 06:05:00,
2013-03-09 23:10:00,30.7,18.8,-100.00,ENE,77,0.0,2.2,60,0.00,,,-99.99,1.0,HOBO +U30 +Weather +,2013-03-10 06:10:00,
2013-03-09 23:15:00,30.6,18.6,-100.00,South,173,2.9,4.0,60,0.00,,,-99.99,1.0,HOBO +U30 +Weather +,2013-03-10 06:15:00,
2013-03-09 23:35:00,29.8,18.4,-100.00,WNW,295,1.1,3.4,62,0.00,,,-99.99,1.0,HOBO +U30 +Weather +,2013-03-10 06:35:00,
2013-03-09 23:55:00,29.5,18.0,-100.00,SW,233,0.0,0.0,61,0.00,,,-99.99,1.0,HOBO +U30 +Weather +,2013-03-10 06:55:00,